Regional Weather Roundup
Issued by NWS

Home | Current Version | Previous Version | Text Only | Print | Product List | Glossary On
Versions: 1 2 3 4 5 6 7 8 9 10 11 12 13 14 15 16 17 18 19 20 21 22 23 24 25 26 27 28 29 30 31 32 33 34 35 36 37 38 39 40 41 42 43 44 45 46 47 48 49 50
000
ASUS43 KTOP 250859
RWRKS

WEATHER ROUNDUP FOR KANSAS
NATIONAL WEATHER SERVICE GOODLAND KS
300 AM CST THU DEC 25 2014

NOTE:  "FAIR" INDICATES FEW OR NO CLOUDS BELOW 12,000 FEET WITH NO
SIGNIFICANT WEATHER AND/OR OBSTRUCTIONS TO VISIBILITY.

KSZ001>006-013>018-027>032-041>047-251000-
NORTHWEST KANSAS

CITY           SKY/WX    TMP DP  RH WIND       PRES   REMARKS
GOODLAND       CLOUDY    35  21  56 S9        29.44F
HAYS           CLOUDY    32  14  47 S8        29.59F
HILL CITY      CLOUDY    33  19  56 S8        29.53F
RUSSELL        CLOUDY    33  22  63 S16       29.59S WCI  23
$$

KSZ061>065-074>080-084>089-251000-
SOUTHWEST KANSAS

CITY           SKY/WX    TMP DP  RH WIND       PRES   REMARKS
DODGE CITY     CLOUDY    33  17  51 S15       29.57F WCI  23
ELKHART          N/A     34  16  48 SW9         N/A
GARDEN CITY    CLOUDY    30  19  63 S12       29.52F WCI  20
GREAT BEND     MOCLDY    34  19  55 S10       29.63F WCI  26
LIBERAL        CLOUDY    32  18  55 S14       29.56F WCI  22
$$

KSZ066>073-081>083-090>101-251000-
SOUTHEAST KANSAS

CITY           SKY/WX    TMP DP  RH WIND       PRES   REMARKS
CHANUTE        PTCLDY    32  29  88 S13       29.84R WCI  22
COFFEYVILLE    CLEAR     30  28  92 S6        29.87R
HUTCHINSON     PTCLDY    35  22  58 S13       29.69F WCI  26
NEWTON         PTCLDY    34  21  60 S14       29.73F WCI  24
PARSONS        PTCLDY    32  29  88 S7        29.86S
WICHITA INTL   PTCLDY    35  23  61 S14       29.73F WCI  26
WICHITA JABRA  PTCLDY    32  23  69 S13       29.73F WCI  22
WINFIELD       CLEAR     36  25  64 S17       29.78F WCI  26
$$

KSZ007>012-019>026-033>040-048>060-102>105-251000-
NORTHEAST KANSAS

CITY           SKY/WX    TMP DP  RH WIND       PRES   REMARKS
CONCORDIA      CLOUDY    34  24  67 S18G25    29.64S WCI  23
EMPORIA        PTCLDY    29  25  85 S16       29.76S WCI  17
LAWRENCE       PTCLDY    29  26  89 E6        29.81R
MANHATTAN      PTCLDY    34  26  72 SW9       29.72F
OLATHE IND     CLEAR     29  27  92 S8        29.81S
OLATHE EXE     CLEAR     31  28  89 S8        29.81R
SALINA         MOCLDY    36  24  62 S13       29.68F WCI  27
TOPEKA BILLARD PTCLDY    33  27  78 S6        29.78S
TOPEKA FORBES  PTCLDY    32  26  78 S8        29.77S
$$


USA.gov is the U.S. government's official web portal to all federal, state and local government web resources and services.